Change the Weather History Date:

Saturday, November 9, 2013

  Actual Average Record
Temperature  
Mean Temperature 44 °F 38 °F  
Max Temperature 48 °F 46 °F 74 °F (1999)
Min Temperature 39 °F 30 °F 13 °F (2000)
Degree Days  
Heating Degree Days 21 27  
Month to date heating degree days 210 229  
Since 1 July heating degree days 908 1055  
Cooling Degree Days 0 0  
Month to date cooling degree days 0 0  
Year to date cooling degree days 535 398  
Moisture  
Dew Point 36 °F    
Average Humidity 74    
Maximum Humidity 86    
Minimum Humidity 62    
Precipitation  
Precipitation 0.21 in 0.08 in 1.70 in (2011)
Month to date precipitation 1.86 0.65  
Year to date precipitation 31.69 26.53  
Snow  
Snow T in 0.10 in 7.60 in (1985)
Month to date snowfall T 0.5  
Since 1 July snowfall T 0.7  
Since 1 September snowfall T 0.7  
Snow Depth 0.00 in    
Sea Level Pressure  
Sea Level Pressure 29.79 in    
Wind  
Wind Speed 16 mph (WSW)    
Max Wind Speed 30 mph    
Max Gust Speed 43 mph    
Visibility 10 miles    
Events Rain    
T = Trace of Precipitation, MM = Missing Value Source: NWS Daily Summary

Daily Weather History Graph

Daily Weather History Graph

Search for Another Location

Airport or City:

Trip Planner

Search our weather history database for the weather conditions in past years. The results will help you decide how hot, cold, wet, or windy it might be!

Date:

Astronomy

Nov. 09, 2013 Rise Set
Actual Time 6:41 AM CST 4:31 PM CST
Civil Twilight 6:10 AM CST 5:02 PM CST
Nautical Twilight 5:35 AM CST 5:36 PM CST
Astronomical Twilight 5:01 AM CST 6:11 PM CST
Moon 12:15 PM CST (11/9) 11:04 PM CST (11/9)
Length of Visible Light 10h 52m
Length of Day
9h 50m
Waxing Crescent, 44% of the Moon is Illuminated
Nov 9
Waxing Crescent
Nov 9
First Quarter
Nov 17
Full
Nov 25
Last Quarter
Dec 2
New

Hourly Weather History & Observations

Time (CST) Temp. Windchill Dew Point Humidity Pressure Visibility Wind Dir Wind Speed Gust Speed Precip Events Conditions
12:53 AM 41.0 °F 32.8 °F 37.9 °F 89% 29.81 in 5.0 mi South 16.1 mph 24.2 mph 0.08 in Rain Rain
1:02 AM 42.1 °F 34.9 °F 37.0 °F 82% 29.78 in 6.0 mi South 13.8 mph 24.2 mph 0.02 in Rain Rain
1:19 AM 42.1 °F 35.7 °F 37.9 °F 85% 29.77 in 6.0 mi South 11.5 mph - 0.04 in Rain Light Rain
1:53 AM 41.0 °F 33.9 °F 37.9 °F 89% 29.76 in 5.0 mi SSE 12.7 mph - 0.10 in Rain Rain
2:53 AM 42.1 °F 35.7 °F 37.9 °F 85% 29.71 in 10.0 mi South 11.5 mph - 0.04 in   Overcast
3:53 AM 42.1 °F 37.1 °F 37.9 °F 85% 29.69 in 10.0 mi South 8.1 mph - N/A   Overcast
4:53 AM 45.0 °F 39.7 °F 37.9 °F 76% 29.68 in 10.0 mi SSW 10.4 mph - N/A   Overcast
5:53 AM 46.0 °F 41.0 °F 37.9 °F 73% 29.69 in 10.0 mi SW 10.4 mph - N/A   Overcast
6:53 AM 46.0 °F 41.0 °F 37.9 °F 73% 29.69 in 10.0 mi SSW 10.4 mph - N/A   Mostly Cloudy
7:08 AM 46.0 °F 40.6 °F 37.9 °F 73% 29.67 in 10.0 mi SW 11.5 mph - N/A   Mostly Cloudy
7:53 AM 45.0 °F 39.3 °F 39.0 °F 80% 29.70 in 10.0 mi SW 11.5 mph - N/A   Overcast
8:53 AM 46.9 °F - 39.9 °F 77% 29.70 in 10.0 mi SW 13.8 mph 20.7 mph N/A   Overcast
9:19 AM 46.9 °F - 39.9 °F 77% 29.68 in 10.0 mi WSW 15.0 mph 21.9 mph N/A   Overcast
9:53 AM 46.9 °F - 39.9 °F 77% 29.71 in 10.0 mi West 18.4 mph 28.8 mph N/A   Overcast
10:53 AM 46.0 °F 39.3 °F 39.0 °F 76% 29.73 in 10.0 mi West 16.1 mph - N/A   Overcast
11:53 AM 48.0 °F - 37.9 °F 68% 29.73 in 10.0 mi West 16.1 mph 26.5 mph N/A   Mostly Cloudy
12:53 PM 46.9 °F - 37.0 °F 68% 29.75 in 10.0 mi West 27.6 mph 38.0 mph N/A   Overcast
1:06 PM 46.0 °F 37.0 °F 37.0 °F 71% 29.74 in 10.0 mi West 27.6 mph 35.7 mph N/A   Overcast
1:53 PM 46.0 °F 37.4 °F 37.0 °F 71% 29.78 in 10.0 mi West 25.3 mph 32.2 mph N/A   Overcast
2:40 PM 45.0 °F 36.6 °F 37.0 °F 74% 29.78 in 10.0 mi West 21.9 mph 27.6 mph N/A   Overcast
2:49 PM 44.6 °F 37.2 °F 37.4 °F 76% 29.78 in 10.0 mi West 17.3 mph 28.8 mph N/A   Overcast
2:53 PM 45.0 °F 37.1 °F 37.0 °F 74% 29.80 in 10.0 mi West 19.6 mph - N/A   Overcast
3:26 PM 45.0 °F 36.6 °F 36.0 °F 71% 29.80 in 10.0 mi West 21.9 mph 29.9 mph N/A   Overcast
3:53 PM 45.0 °F 36.9 °F 35.1 °F 68% 29.83 in 10.0 mi West 20.7 mph 36.8 mph N/A   Overcast
4:53 PM 43.0 °F 33.8 °F 33.1 °F 68% 29.87 in 10.0 mi West 23.0 mph 32.2 mph N/A   Overcast
5:53 PM 43.0 °F 35.4 °F 30.9 °F 62% 29.90 in 10.0 mi WNW 16.1 mph 27.6 mph N/A   Overcast
6:53 PM 42.1 °F 34.9 °F 32.0 °F 67% 29.91 in 10.0 mi West 13.8 mph 20.7 mph N/A   Overcast
7:53 PM 42.1 °F 35.2 °F 32.0 °F 67% 29.92 in 10.0 mi West 12.7 mph 28.8 mph N/A   Overcast
8:53 PM 41.0 °F 33.1 °F 30.0 °F 65% 29.93 in 10.0 mi West 15.0 mph 25.3 mph 0.00 in   Overcast
9:53 PM 39.9 °F 30.8 °F 28.9 °F 65% 29.95 in 10.0 mi West 18.4 mph 27.6 mph N/A   Overcast
10:53 PM 39.9 °F 31.4 °F 28.9 °F 65% 29.98 in 10.0 mi West 16.1 mph 24.2 mph N/A   Overcast
11:53 PM 39.0 °F 30.3 °F 28.9 °F 67% 29.99 in 10.0 mi West 16.1 mph - N/A   Overcast